Retour au catalogue

STARLINK-32375

ActifCommunicationsVLEO
NORAD 61070·PAYLOAD·🇺🇸 United States

Lancé Sep 13, 2024 depuis Vandenberg Space Force Base

Loading…

Prochains Passages (prochaines 24 heures)

TLE

FraisSource: CelesTrak SupGP

Époque: Sep 15, 2026, 02:56 UTC

1 61070C 24164W   26258.12270833  .00009285  00000+0  27428-3 0  2587
2 61070  53.1590 290.5419 0001213  90.4673 144.5373 15.34390752    12

Suivez STARLINK-32375 en temps réel avec AllMySat

Download on the App Store